Find Starlink 32874

NORAD ID: 62954 Int'l Des: 2025-029 Owner: SPXS Country: US Constellation: starlink operational
LEOCIRCULAR

当前视图

正在加载3D地球...

About Starlink 32874

Starlink 32874 (NORAD 62954) is a starlink constellation satellite (v2 mini) launched Feb 11, 2025 by SPXS of US. It operates in LEO, CIRCULAR orbit with a mass of 730.00 kg.

即将过境

Passes for default location (London). Set your location on the main map for personalized predictions.

高度历史

Loading altitude history...

两行轨道根数

1 62954U 25029G 26228.92915615 .00016008 00000-0 48427-3 0 9995
2 62954 53.1584 203.0091 0001585 79.5919 280.5263 15.34376272 85939
Epoch: Aug 16, 2026 • Age: 9 hours

当前状态

高度 478.8 km
远地点 / 近地点 N/A
速度 7.63 km/s
星下点 -44.92°S, 76.38°E
发射日期 Feb 11, 2025
运行时间 1.5 years
类型 internet

技术详情

分类 Payload
质量 730.00 kg
干质量 700.00 kg
总质量 730.00 kg
长度 0.30 m
直径 4.10 m
跨度 29.00 m
形状 Box + pan
制造商 SPXS
平台类型 Starlink V2M
阶段状态 In Orbit
所有者/国家 SPXS/US

Most Searched